Wind_Speed
27 28 29 29 29 30 32 33 33 33 34 35 35 35 35 36 36 36 37 37 37 37 37 38 38 39 39 40 40 40 40 40 40 40 40 40 40 39 39 40 41 41 42 42
27 26 26 27 27 29 31 32 33 33 33 35 35 35 35 36 36 36 37 37 37 37 38 38 38 38 39 40 41 40 41 41 40 40 40 40 40 40 40 40 41 41 41 42
27 26 26 27 28 29 31 31 32 32 32 33 35 34 34 35 36 36 37 37 37 38 38 39 39 38 38 39 40 41 41 40 40 40 39 40 41 40 40 40 41 41 42 42
28 27 27 28 28 29 30 31 32 32 33 33 33 35 33 34 35 36 36 37 37 37 38 38 39 38 38 38 39 40 40 40 40 40 40 40 41 42 42 41 42 43 43 43
28 28 28 28 28 29 30 30 31 31 33 33 32 34 32 32 33 34 35 36 36 36 37 37 38 38 38 39 39 40 40 41 41 42 42 42 42 43 43 43 44 44 44 43
28 28 29 29 29 29 30 30 31 31 32 34 32 34 33 31 32 33 34 35 35 35 36 37 37 38 39 39 40 40 41 41 42 43 43 44 44 44 44 44 45 44 45 45
28 28 28 28 28 29 30 29 30 31 32 34 33 34 34 32 32 33 34 35 35 35 36 36 37 37 38 39 40 41 42 42 42 43 44 45 46 46 45 45 45 46 46 46
28 28 28 28 29 29 30 30 30 31 32 33 33 34 34 33 32 33 34 35 35 36 36 37 37 37 38 39 41 41 42 42 43 43 44 45 46 47 47 47 46 47 48 47
28 28 28 29 29 29 29 30 30 32 33 34 33 33 33 32 32 32 33 34 34 35 36 37 38 38 39 40 41 42 43 43 44 44 45 46 47 48 48 48 47 46 46 47
29 29 29 29 29 30 31 30 31 32 33 33 33 32 32 32 32 32 33 34 35 35 35 36 37 38 39 39 40 41 42 43 44 44 45 45 46 47 48 48 47 46 45 46
30 31 30 30 30 30 31 31 32 33 34 34 34 33 32 32 32 33 33 34 35 35 36 36 36 37 38 38 39 40 42 42 43 43 44 45 46 46 46 47 46 45 45 45
30 31 31 31 31 31 31 31 32 33 34 34 34 33 32 33 33 33 34 35 35 36 36 37 37 37 37 38 39 40 40 41 41 42 43 44 45 45 45 46 45 44 44 45
30 31 32 31 31 32 32 31 32 33 34 34 34 32 31 33 34 34 34 35 36 36 37 38 37 37 38 39 39 39 40 41 41 42 42 43 43 44 44 45 45 45 45 45
31 32 32 32 32 32 31 32 32 34 34 35 34 32 32 32 34 36 36 36 36 37 38 38 38 38 38 38 39 39 40 41 41 41 42 42 43 43 43 44 46 46 46 46
31 32 32 32 32 33 33 33 33 34 34 35 33 33 33 34 35 36 38 38 38 38 38 38 39 38 38 38 38 39 40 41 41 41 42 42 42 42 43 44 45 45 45 46
31 32 32 32 33 34 35 34 34 35 35 36 35 34 34 35 37 37 38 39 39 38 38 38 38 39 39 39 39 39 39 40 41 41 42 42 41 42 43 43 43 44 44 45
32 33 33 33 33 35 35 33 34 34 35 36 36 36 36 37 37 37 38 39 39 39 39 38 39 39 39 39 39 39 39 39 40 41 42 42 42 42 43 44 44 43 43 43
33 34 35 35 34 36 34 34 34 35 34 35 37 37 38 38 37 37 38 38 39 40 40 40 39 39 39 39 39 39 40 40 41 41 41 42 42 43 44 44 44 43 43 43
33 34 35 36 36 36 34 33 34 35 35 35 36 37 39 39 38 38 38 38 39 40 40 41 41 40 40 40 39 40 40 41 42 42 42 42 43 43 44 44 44 44 44 44
32 33 35 36 37 37 34 34 35 37 37 36 37 37 39 40 40 39 38 38 39 41 41 42 42 41 41 40 40 40 40 41 42 43 43 43 43 43 43 44 45 45 45 45
33 33 34 35 36 36 35 35 36 37 37 37 38 38 38 39 40 39 39 38 38 39 40 41 41 41 40 40 40 40 40 41 41 41 42 43 43 44 44 44 45 45 46 47
33 34 34 35 35 35 34 35 36 36 37 37 38 38 38 39 39 40 40 39 38 38 38 39 40 40 40 40 40 40 40 40 41 41 42 42 43 44 45 45 45 46 47 47
34 34 35 35 34 34 34 35 36 36 37 37 38 38 38 39 39 39 40 40 39 39 39 39 39 39 39 40 40 40 40 40 41 41 42 42 43 43 44 44 45 46 47 47
35 34 35 35 34 35 35 36 36 36 37 37 38 38 38 38 39 39 39 39 39 40 40 40 39 39 39 39 39 39 40 40 40 41 41 41 42 42 42 43 44 45 46 46
35 35 35 35 35 36 36 36 37 37 37 37 38 38 38 38 39 39 39 39 39 39 40 40 40 40 40 39 39 39 40 39 39 39 40 40 41 41 42 42 43 44 44 44
34 35 35 35 35 36 36 36 37 37 36 37 38 39 39 39 39 39 39 39 39 39 40 40 40 40 40 41 41 41 41 41 40 40 39 39 40 40 41 41 42 42 42 43
Wind_Direction
266 264 263 263 262 262 263 262 263 262 262 263 264 264 264 264 264 265 266 267 267 268 267 266 266 265 263 261 260 260 259 259 259 259 259 258 257 258 259 259 259 260 260 260
265 264 265 263 262 262 262 262 263 264 264 264 265 265 265 265 265 265 266 267 267 267 267 267 267 266 266 264 263 262 261 260 260 259 259 258 258 259 260 261 261 260 260 260
266 266 265 264 264 263 262 263 264 265 265 265 266 266 266 266 266 266 266 267 267 267 268 267 268 268 267 266 264 263 263 261 261 260 259 259 260 260 261 261 261 263 261 260
266 265 265 265 266 267 266 265 265 265 265 266 268 270 267 268 268 268 268 268 268 268 268 268 268 268 268 267 266 263 262 262 262 262 261 261 261 261 262 262 262 263 262 260
268 266 267 268 268 270 269 268 268 268 268 269 269 272 271 269 269 269 269 269 269 269 269 269 269 269 269 268 267 265 264 263 262 263 263 262 261 262 263 263 263 263 263 261
270 269 269 270 270 270 271 271 271 271 271 270 271 273 274 272 271 271 271 271 271 271 271 271 272 271 271 270 268 266 265 264 263 262 263 263 263 262 263 263 264 264 263 263
272 271 271 272 271 269 270 272 274 274 273 274 272 273 275 275 274 273 272 272 272 272 273 273 273 273 272 271 269 267 266 265 264 264 263 264 263 263 262 263 264 264 264 263
273 272 272 272 272 272 271 272 274 276 277 278 276 274 275 275 275 274 273 273 273 273 273 274 275 275 274 273 271 268 266 265 265 265 264 264 264 263 263 263 264 265 264 262
275 275 273 272 272 272 272 271 272 275 277 280 280 279 277 277 277 276 275 274 274 275 275 275 275 275 275 274 273 271 269 267 265 265 266 265 265 265 265 265 264 264 263 262
275 276 274 274 273 272 273 273 272 274 277 280 282 283 281 278 277 277 277 277 276 276 276 277 277 276 275 275 274 272 270 269 267 266 266 266 266 265 265 265 265 264 262 261
276 276 276 274 273 273 272 272 272 273 275 277 281 284 283 281 278 277 277 279 279 278 278 278 278 277 277 276 275 273 271 270 269 268 267 266 266 265 265 264 264 263 262 262
277 277 277 276 275 274 273 272 272 272 274 274 278 283 282 282 280 279 280 280 281 280 279 279 279 278 277 277 277 275 273 271 270 269 268 267 266 265 264 264 264 263 263 263
278 278 278 276 275 274 273 272 272 272 273 273 274 280 282 281 280 279 280 282 282 281 280 278 279 278 278 277 277 275 274 272 270 268 268 267 267 266 265 264 264 264 264 264
278 278 278 278 278 277 275 273 272 273 273 273 273 276 279 280 281 279 279 282 283 282 281 280 279 278 278 278 277 276 275 273 270 267 267 267 266 267 266 265 265 265 265 265
278 278 278 278 276 275 275 274 272 272 273 273 273 274 276 278 279 279 279 281 282 283 283 281 280 280 279 278 278 277 276 273 270 267 267 267 267 267 267 267 267 266 265 265
278 278 279 278 277 276 276 275 275 274 273 273 273 275 278 279 279 280 280 280 281 282 282 282 281 280 279 279 279 278 277 274 271 268 268 267 268 268 268 268 267 267 267 266
279 279 279 278 277 277 277 278 278 277 275 274 274 276 277 278 279 280 280 280 280 280 282 283 282 282 281 281 280 279 277 274 271 270 269 268 267 267 267 268 268 267 267 267
280 280 280 281 279 278 280 279 279 278 277 276 276 276 277 279 279 279 279 280 280 281 282 283 282 282 282 281 280 278 277 274 273 273 271 270 268 267 267 268 268 267 267 267
281 282 282 283 282 282 281 281 281 280 279 278 279 278 278 279 279 279 279 279 281 282 282 283 283 283 282 281 280 279 277 275 273 273 273 271 270 268 268 267 268 268 268 267
282 283 283 284 282 283 285 283 281 281 281 281 280 280 279 279 279 279 279 280 281 282 282 283 283 283 283 281 281 280 279 277 275 274 273 272 270 269 269 268 268 268 268 268
282 283 284 285 284 284 286 286 283 282 284 283 282 281 281 280 279 280 280 282 283 284 284 283 283 283 283 282 281 280 279 278 276 275 274 273 271 270 269 270 270 270 269 269
283 284 285 285 285 286 287 285 284 284 283 284 284 283 282 281 280 280 281 283 285 286 285 284 283 283 283 282 282 281 280 279 277 276 274 273 272 271 270 270 269 270 270 270
282 284 285 285 286 286 286 286 285 284 284 285 285 285 284 282 281 281 282 283 284 284 285 286 285 284 283 283 282 281 281 280 278 276 275 274 273 272 271 270 270 270 270 270
282 283 284 284 285 285 285 285 285 285 285 285 285 285 284 283 283 283 283 283 284 284 285 286 286 285 284 283 282 282 282 281 279 277 276 274 273 272 272 272 271 271 271 271
283 284 286 286 287 286 285 286 286 286 286 285 285 285 285 284 284 283 283 283 283 284 284 285 285 285 285 284 283 283 282 282 280 278 277 275 274 273 273 273 272 272 272 272
283 286 288 288 288 287 286 286 286 285 286 286 285 286 286 286 286 285 285 285 284 285 285 286 286 286 285 285 284 283 282 281 280 278 277 275 275 274 274 273 273 273 272 271
Height
5689 5690 5690 5692 5693 5694 5694 5694 5695 5697 5698 5698 5699 5700 5702 5702 5703 5704 5705 5706 5707 5707 5708 5708 5709 5709 5710 5711 5712 5713 5715 5715 5716 5717 5718 5720 5721 5722 5723 5723 5724 5725 5725 5725
5682 5683 5684 5684 5684 5685 5686 5686 5687 5689 5689 5689 5690 5691 5693 5693 5694 5695 5696 5697 5698 5698 5698 5699 5699 5700 5700 5701 5702 5703 5705 5705 5706 5707 5708 5710 5711 5712 5713 5714 5715 5715 5715 5715
5675 5677 5676 5676 5677 5677 5678 5678 5679 5680 5680 5680 5681 5682 5684 5684 5685 5686 5687 5687 5688 5689 5689 5689 5690 5690 5691 5691 5692 5693 5694 5695 5696 5697 5698 5699 5701 5702 5703 5704 5705 5705 5705 5705
5667 5669 5669 5669 5670 5670 5670 5671 5671 5671 5671 5672 5672 5672 5675 5676 5676 5677 5678 5678 5679 5679 5679 5680 5680 5681 5681 5681 5682 5683 5684 5685 5686 5687 5688 5689 5691 5692 5693 5694 5694 5694 5694 5695
5661 5662 5662 5662 5662 5662 5662 5663 5663 5663 5663 5663 5664 5663 5666 5667 5667 5668 5669 5669 5669 5670 5670 5670 5670 5671 5671 5671 5672 5672 5673 5674 5675 5676 5677 5678 5680 5681 5682 5683 5683 5683 5683 5684
5654 5654 5654 5654 5655 5655 5654 5655 5655 5654 5654 5654 5656 5655 5656 5658 5659 5659 5659 5659 5659 5660 5660 5661 5661 5661 5661 5661 5661 5661 5662 5663 5664 5665 5666 5667 5668 5669 5671 5671 5672 5672 5673 5673
5646 5646 5646 5647 5647 5647 5647 5647 5647 5645 5645 5646 5648 5646 5647 5650 5650 5650 5650 5650 5650 5650 5651 5651 5651 5651 5651 5650 5650 5651 5651 5652 5653 5654 5655 5656 5657 5658 5659 5659 5660 5660 5661 5661
5638 5639 5639 5639 5639 5639 5639 5639 5640 5639 5638 5638 5638 5637 5640 5641 5641 5640 5640 5640 5640 5640 5640 5640 5640 5640 5640 5640 5639 5639 5640 5641 5641 5642 5643 5644 5645 5645 5646 5647 5648 5648 5649 5650
5630 5631 5631 5631 5631 5631 5631 5631 5632 5631 5629 5629 5629 5630 5632 5632 5632 5632 5631 5630 5630 5630 5630 5630 5630 5630 5629 5629 5628 5628 5628 5628 5629 5630 5631 5631 5632 5633 5633 5634 5635 5635 5636 5637
5623 5623 5624 5623 5624 5624 5624 5624 5624 5622 5621 5621 5621 5622 5623 5622 5622 5622 5622 5621 5621 5621 5620 5620 5619 5618 5618 5617 5616 5616 5616 5616 5616 5617 5618 5618 5619 5619 5620 5620 5621 5622 5623 5624
5616 5616 5616 5616 5616 5616 5616 5616 5615 5614 5614 5614 5613 5616 5615 5614 5613 5613 5613 5612 5612 5611 5610 5609 5608 5608 5607 5606 5605 5604 5604 5604 5604 5604 5605 5605 5606 5606 5607 5607 5608 5609 5610 5611
5608 5607 5607 5608 5608 5607 5607 5607 5607 5607 5606 5605 5605 5609 5606 5605 5604 5603 5603 5602 5602 5601 5600 5599 5598 5597 5596 5594 5593 5592 5592 5591 5592 5592 5592 5592 5593 5593 5594 5594 5595 5596 5598 5598
5600 5599 5599 5599 5601 5600 5599 5599 5599 5598 5597 5597 5596 5600 5597 5595 5594 5594 5593 5592 5591 5590 5589 5588 5587 5586 5585 5583 5582 5581 5580 5579 5579 5579 5580 5580 5580 5581 5581 5582 5583 5584 5585 5586
5592 5591 5592 5592 5591 5590 5590 5591 5590 5589 5588 5588 5589 5589 5588 5586 5585 5584 5583 5582 5581 5580 5578 5577 5576 5575 5574 5572 5571 5569 5569 5568 5568 5568 5568 5568 5568 5569 5570 5570 5570 5571 5572 5573
5584 5584 5583 5583 5582 5581 5581 5581 5581 5580 5579 5579 5580 5579 5579 5577 5575 5574 5573 5572 5570 5569 5568 5566 5565 5563 5562 5561 5559 5558 5557 5556 5556 5556 5557 5557 5557 5557 5558 5558 5558 5559 5559 5560
5576 5575 5575 5574 5573 5572 5571 5572 5571 5570 5570 5569 5569 5570 5569 5566 5564 5563 5562 5561 5560 5558 5557 5555 5554 5552 5551 5549 5548 5546 5545 5544 5544 5544 5545 5545 5545 5545 5545 5546 5546 5546 5547 5547
5568 5567 5566 5565 5564 5562 5563 5564 5562 5561 5560 5560 5559 5560 5557 5556 5554 5553 5551 5550 5548 5547 5546 5544 5542 5541 5539 5537 5536 5535 5534 5533 5533 5533 5532 5533 5533 5533 5533 5533 5533 5534 5534 5534
5560 5558 5556 5555 5555 5553 5557 5555 5553 5551 5551 5550 5549 5548 5546 5545 5543 5541 5540 5538 5537 5536 5535 5533 5531 5529 5527 5526 5524 5523 5522 5521 5521 5521 5520 5520 5520 5520 5520 5520 5521 5521 5521 5522
5551 5549 5547 5546 5544 5543 5546 5545 5543 5541 5541 5540 5538 5537 5535 5533 5532 5530 5528 5527 5525 5524 5523 5521 5519 5517 5516 5514 5513 5511 5510 5509 5509 5508 5508 5508 5507 5507 5508 5507 5507 5507 5508 5509
5543 5541 5540 5537 5534 5534 5538 5536 5532 5531 5531 5530 5527 5526 5524 5522 5521 5520 5517 5516 5514 5512 5511 5509 5507 5505 5504 5502 5501 5499 5498 5497 5496 5496 5495 5494 5494 5494 5494 5494 5494 5494 5495 5495
5534 5532 5531 5528 5525 5525 5527 5525 5522 5522 5522 5519 5516 5514 5513 5511 5509 5508 5506 5504 5502 5501 5499 5497 5495 5493 5491 5490 5488 5487 5486 5484 5483 5482 5482 5481 5481 5481 5481 5481 5481 5481 5481 5481
5525 5523 5522 5519 5517 5519 5517 5514 5513 5511 5509 5507 5505 5503 5501 5500 5497 5496 5494 5492 5491 5489 5487 5485 5483 5481 5479 5478 5476 5475 5473 5472 5470 5469 5468 5468 5467 5467 5467 5467 5467 5467 5467 5467
5516 5516 5513 5512 5512 5509 5506 5504 5502 5500 5498 5496 5494 5492 5490 5488 5486 5485 5483 5481 5480 5478 5475 5473 5471 5470 5468 5466 5464 5462 5461 5459 5457 5456 5455 5454 5453 5453 5452 5452 5452 5452 5452 5452
5507 5505 5503 5502 5501 5499 5496 5494 5492 5490 5488 5485 5483 5481 5479 5477 5475 5473 5472 5470 5468 5466 5464 5462 5460 5458 5456 5453 5451 5450 5448 5446 5444 5443 5441 5440 5440 5439 5439 5438 5438 5438 5438 5438
5498 5496 5493 5492 5491 5489 5487 5484 5482 5479 5477 5475 5473 5470 5468 5466 5464 5462 5460 5458 5457 5455 5452 5450 5448 5446 5444 5441 5439 5437 5435 5433 5431 5430 5429 5427 5426 5426 5425 5425 5424 5424 5424 5423
5489 5487 5485 5483 5481 5479 5477 5474 5472 5469 5467 5465 5462 5460 5457 5455 5453 5451 5449 5447 5445 5443 5441 5438 5436 5434 5431 5429 5427 5425 5422 5420 5418 5417 5416 5415 5414 5413 5412 5412 5411 5410 5410 5410